When you browse on this site, cookies collect data to enhance your experience and personalize the content and advertising you see.
Visit our Privacy Policy to learn more. By continuing to use the site, you agree to this use of cookies and data.
  • In Czech Republic
  • List of Countries
  • For 7 days
  • Water Temperature
  • Weather Map
  • Weather Widgets
  • user-avatar
    Login

    Hourly Weather Batina

    Today, 1 April, Wednesday

    Time Temperature Precipitation Wind Pressure Humidity
    00:00 +9°C° 0 mm 2 mps 668 mmHg 62%
    01:00 +9°C° 0 mm 2 mps 667 mmHg 60%
    02:00 +9°C° 0 mm 2 mps 667 mmHg 59%
    03:00 +10°C° 0 mm 1 mps 667 mmHg 57%
    04:00 +10°C° 0 mm 2 mps 667 mmHg 57%
    05:00 +10°C° 0 mm 2 mps 667 mmHg 56%
    06:00 +10°C° 0 mm 2 mps 667 mmHg 56%
    07:00 +13°C° 0 mm 2 mps 668 mmHg 49%
    08:00 +14°C° 0 mm 3 mps 668 mmHg 42%
    09:00 +17°C° 0 mm 3 mps 669 mmHg 35%
    10:00 +18°C° 0 mm 4 mps 669 mmHg 33%
    11:00 +19°C° 0 mm 5 mps 669 mmHg 31%
    12:00 +20°C° 0 mm 6 mps 669 mmHg 29%
    13:00 +20°C° 0 mm 6 mps 668 mmHg 29%
    14:00 +20°C° 0 mm 7 mps 667 mmHg 29%
    15:00 +20°C° 0 mm 7 mps 667 mmHg 29%
    16:00 +17°C° 0 mm 5 mps 666 mmHg 35%
    17:00 +16°C° 0 mm 3 mps 666 mmHg 40%
    18:00 +14°C° 0 mm 1 mps 665 mmHg 46%
    19:00 +14°C° 0 mm 1 mps 665 mmHg 49%
    20:00 +13°C° 0 mm 1 mps 666 mmHg 52%
    21:00 +13°C° 0 mm 1 mps 666 mmHg 54%
    22:00 +12°C° 0 mm 1 mps 666 mmHg 58%
    23:00 +11°C° 0 mm 1 mps 666 mmHg 61%

    Tomorrow, 2 April, Thursday

    Time Temperature Precipitation Wind Pressure Humidity
    00:00 +11°C° 0 mm 1 mps 665 mmHg 65%
    01:00 +10°C° 0 mm 1 mps 665 mmHg 68%
    02:00 +9°C° 0 mm 2 mps 665 mmHg 72%
    03:00 +8°C° 0 mm 2 mps 664 mmHg 76%
    04:00 +10°C° 0 mm 1 mps 664 mmHg 75%
    05:00 +10°C° 0 mm 1 mps 664 mmHg 73%
    06:00 +10°C° 0 mm 1 mps 664 mmHg 72%
    07:00 +12°C° 0 mm 1 mps 665 mmHg 64%
    08:00 +13°C° 0 mm 1 mps 665 mmHg 56%
    09:00 +15°C° 0 mm 2 mps 666 mmHg 49%
    10:00 +16°C° 0 mm 2 mps 666 mmHg 45%
    11:00 +16°C° 0 mm 3 mps 666 mmHg 41%
    12:00 +17°C° 0 mm 4 mps 666 mmHg 37%
    13:00 +17°C° 0 mm 4 mps 666 mmHg 36%
    14:00 +17°C° 0 mm 4 mps 665 mmHg 35%
    15:00 +17°C° 0 mm 4 mps 665 mmHg 34%
    16:00 +14°C° 0.2 mm 4 mps 665 mmHg 45%
    17:00 +13°C° 0.2 mm 3 mps 664 mmHg 56%
    18:00 +11°C° 0.2 mm 3 mps 664 mmHg 66%
    19:00 +11°C° 0.2 mm 3 mps 665 mmHg 71%
    20:00 +10°C° 0.2 mm 2 mps 665 mmHg 76%
    21:00 +9°C° 0.2 mm 2 mps 665 mmHg 81%
    22:00 +9°C° 0.1 mm 2 mps 665 mmHg 82%
    23:00 +9°C° 0.1 mm 2 mps 665 mmHg 82%

    Day after tomorrow, 3 April, Friday

    Time Temperature Precipitation Wind Pressure Humidity
    00:00 +9°C° 0.1 mm 2 mps 665 mmHg 83%
    01:00 +8°C° 0 mm 2 mps 664 mmHg 84%
    02:00 +8°C° 0 mm 2 mps 664 mmHg 85%
    03:00 +7°C° 0 mm 2 mps 664 mmHg 86%
    04:00 +7°C° 0 mm 2 mps 664 mmHg 87%
    05:00 +7°C° 0 mm 3 mps 663 mmHg 87%
    06:00 +7°C° 0 mm 3 mps 663 mmHg 88%
    07:00 +7°C° 0.1 mm 3 mps 664 mmHg 83%
    08:00 +8°C° 0.1 mm 3 mps 664 mmHg 79%
    09:00 +9°C° 0.1 mm 3 mps 665 mmHg 74%
    10:00 +9°C° 0.4 mm 3 mps 664 mmHg 73%
    11:00 +9°C° 0.4 mm 3 mps 664 mmHg 72%
    12:00 +10°C° 0.4 mm 3 mps 664 mmHg 70%
    13:00 +9°C° 1.5 mm 3 mps 664 mmHg 75%
    14:00 +8°C° 1.5 mm 3 mps 663 mmHg 79%
    15:00 +8°C° 1.5 mm 3 mps 663 mmHg 83%
    16:00 +7°C° 4.1 mm 3 mps 663 mmHg 86%
    17:00 +5°C° 4.1 mm 4 mps 663 mmHg 89%
    18:00 +5°C° 4.1 mm 4 mps 664 mmHg 91%
    19:00 +5°C° 0.7 mm 4 mps 664 mmHg 91%
    20:00 +5°C° 0.7 mm 5 mps 665 mmHg 90%
    21:00 +5°C° 0.7 mm 5 mps 666 mmHg 90%
    22:00 +5°C° 0.1 mm 4 mps 666 mmHg 90%
    23:00 +5°C° 0.1 mm 4 mps 666 mmHg 91%

    4 April, Saturday

    Time Temperature Precipitation Wind Pressure Humidity
    00:00 +5°C° 0.1 mm 3 mps 666 mmHg 91%
    01:00 +5°C° 0.1 mm 3 mps 666 mmHg 91%
    02:00 +5°C° 0.1 mm 3 mps 666 mmHg 92%
    03:00 +5°C° 0.1 mm 3 mps 666 mmHg 92%
    04:00 +5°C° 0 mm 3 mps 667 mmHg 92%
    05:00 +5°C° 0 mm 3 mps 667 mmHg 92%
    06:00 +5°C° 0 mm 3 mps 667 mmHg 92%
    07:00 +7°C° 0 mm 3 mps 668 mmHg 86%
    08:00 +8°C° 0 mm 3 mps 669 mmHg 79%
    09:00 +9°C° 0 mm 3 mps 669 mmHg 72%
    10:00 +9°C° 0 mm 2 mps 669 mmHg 68%
    11:00 +10°C° 0 mm 2 mps 670 mmHg 64%
    12:00 +12°C° 0 mm 1 mps 670 mmHg 60%
    13:00 +12°C° 0 mm 1 mps 670 mmHg 58%
    14:00 +13°C° 0 mm 1 mps 670 mmHg 56%
    15:00 +13°C° 0 mm 1 mps 669 mmHg 55%
    16:00 +13°C° 0 mm 1 mps 670 mmHg 57%
    17:00 +12°C° 0 mm 2 mps 670 mmHg 59%
    18:00 +12°C° 0 mm 2 mps 670 mmHg 62%
    19:00 +10°C° 0 mm 2 mps 670 mmHg 67%
    20:00 +10°C° 0 mm 1 mps 670 mmHg 73%
    21:00 +9°C° 0 mm 1 mps 671 mmHg 78%
    22:00 +9°C° 0 mm 1 mps 670 mmHg 78%
    23:00 +8°C° 0 mm 1 mps 670 mmHg 78%

    5 April, Sunday

    Time Temperature Precipitation Wind Pressure Humidity
    00:00 +8°C° 0 mm 1 mps 670 mmHg 77%
    01:00 +8°C° 0 mm 1 mps 670 mmHg 78%
    02:00 +8°C° 0 mm 1 mps 670 mmHg 78%
    03:00 +7°C° 0 mm 1 mps 669 mmHg 78%
    04:00 +7°C° 0 mm 2 mps 669 mmHg 77%
    05:00 +7°C° 0 mm 2 mps 670 mmHg 77%
    06:00 +7°C° 0 mm 2 mps 670 mmHg 76%
    07:00 +9°C° 0 mm 3 mps 670 mmHg 69%
    08:00 +11°C° 0 mm 4 mps 671 mmHg 61%
    09:00 +13°C° 0 mm 5 mps 671 mmHg 53%
    10:00 +14°C° 0 mm 5 mps 671 mmHg 50%
    11:00 +15°C° 0 mm 5 mps 671 mmHg 47%
    12:00 +15°C° 0 mm 5 mps 671 mmHg 44%
    13:00 +15°C° 0 mm 5 mps 671 mmHg 46%
    14:00 +15°C° 0 mm 5 mps 670 mmHg 49%
    15:00 +15°C° 0 mm 5 mps 670 mmHg 51%
    16:00 +14°C° 0 mm 4 mps 670 mmHg 54%
    17:00 +13°C° 0 mm 3 mps 670 mmHg 58%
    18:00 +13°C° 0 mm 2 mps 669 mmHg 61%
    19:00 +13°C° 0 mm 2 mps 670 mmHg 63%
    20:00 +12°C° 0 mm 2 mps 670 mmHg 64%
    21:00 +12°C° 0 mm 2 mps 671 mmHg 66%
    22:00 +10°C° 0 mm 2 mps 670 mmHg 66%
    23:00 +10°C° 0 mm 2 mps 670 mmHg 66%

    6 April, Monday

    Time Temperature Precipitation Wind Pressure Humidity
    00:00 +10°C° 0 mm 2 mps 670 mmHg 66%
    01:00 +10°C° 0 mm 2 mps 670 mmHg 67%
    02:00 +9°C° 0 mm 2 mps 670 mmHg 68%
    03:00 +9°C° 0 mm 2 mps 669 mmHg 69%
    04:00 +9°C° 0 mm 2 mps 670 mmHg 69%
    05:00 +9°C° 0 mm 2 mps 670 mmHg 68%
    06:00 +10°C° 0 mm 2 mps 670 mmHg 68%
    07:00 +13°C° 0 mm 2 mps 671 mmHg 61%
    08:00 +14°C° 0 mm 3 mps 672 mmHg 54%
    09:00 +17°C° 0 mm 4 mps 673 mmHg 48%
    10:00 +18°C° 0 mm 4 mps 673 mmHg 46%
    11:00 +17°C° 0 mm 5 mps 673 mmHg 43%
    12:00 +19°C° 0 mm 5 mps 673 mmHg 41%
    13:00 +19°C° 0 mm 5 mps 673 mmHg 41%
    14:00 +19°C° 0 mm 5 mps 672 mmHg 41%
    15:00 +19°C° 0 mm 5 mps 672 mmHg 41%
    16:00 +18°C° 0.2 mm 4 mps 672 mmHg 49%
    17:00 +16°C° 0.2 mm 3 mps 672 mmHg 58%
    18:00 +14°C° 0.2 mm 3 mps 671 mmHg 66%
    19:00 +13°C° 0.3 mm 3 mps 672 mmHg 72%
    20:00 +13°C° 0.3 mm 2 mps 672 mmHg 77%
    21:00 +13°C° 0.3 mm 2 mps 672 mmHg 83%
    22:00 +12°C° 0 mm 2 mps 672 mmHg 82%
    23:00 +12°C° 0 mm 2 mps 672 mmHg 82%
    Show more